Location: Albuquerque Trailhead
(34.7934°N, 106.3736°W)
Time: 02:25:55
(UTC+00:00)

Cosmos 1763 Rocket - Pass Details

Date: 20 June 2021
Orbit: 732 x 781 km, 74.0° (Epoch: 27 July)

Event Time Altitude Azimuth Distance (km) Brightness Sun altitude
Exits shadow 07:55:46 46° 337° (NNW) 985 4.3 -30.6°
Drops below altitude 10° 07:59:39 10° 9° (N) 2,257 6.8 -30.5°
Sets 08:02:04 0° 13° (NNE) 3,191 7.9 -30.3°
